When you browse on this site, cookies collect data to enhance your experience and personalize the content and advertising you see.
Visit our Privacy Policy to learn more. By continuing to use the site, you agree to this use of cookies and data.
  • în România
  • Lista ţărilor
  • Pe 7 zile
  • Temperatura apei
  • Meteo pe hartă
  • Widget-uri
  • user-avatar
    Intrare

    Meteo pe oră la Grand Bassam

    Astăzi, 19 Ianuarie, Duminică

    Timp Temperatura Precipitaţii Vânt Presiune Umiditate
    00:00 +28°C° 0 mm 3 m/s 758 mmHg 91%
    01:00 +28°C° 0.6 mm 3 m/s 758 mmHg 90%
    02:00 +28°C° 0.6 mm 2 m/s 758 mmHg 90%
    03:00 +28°C° 0.6 mm 2 m/s 757 mmHg 89%
    04:00 +27°C° 0.1 mm 2 m/s 757 mmHg 90%
    05:00 +27°C° 0.1 mm 2 m/s 757 mmHg 91%
    06:00 +27°C° 0.1 mm 1 m/s 757 mmHg 92%
    07:00 +28°C° 0.4 mm 1 m/s 757 mmHg 85%
    08:00 +30°C° 0.4 mm 1 m/s 758 mmHg 78%
    09:00 +31°C° 0.4 mm 1 m/s 759 mmHg 71%
    10:00 +33°C° 0 mm 1 m/s 758 mmHg 63%
    11:00 +35°C° 0 mm 2 m/s 758 mmHg 56%
    12:00 +37°C° 0 mm 2 m/s 757 mmHg 48%
    13:00 +36°C° 0 mm 3 m/s 757 mmHg 52%
    14:00 +35°C° 0 mm 3 m/s 756 mmHg 56%
    15:00 +34°C° 0 mm 4 m/s 755 mmHg 60%
    16:00 +33°C° 0 mm 4 m/s 755 mmHg 65%
    17:00 +32°C° 0 mm 4 m/s 756 mmHg 70%
    18:00 +30°C° 0 mm 4 m/s 756 mmHg 75%
    19:00 +30°C° 0 mm 4 m/s 756 mmHg 78%
    20:00 +29°C° 0 mm 4 m/s 757 mmHg 80%
    21:00 +29°C° 0 mm 4 m/s 757 mmHg 83%
    22:00 +29°C° 0 mm 3 m/s 757 mmHg 85%
    23:00 +28°C° 0 mm 3 m/s 757 mmHg 86%

    Mâine, 20 Ianuarie, Luni

    Timp Temperatura Precipitaţii Vânt Presiune Umiditate
    00:00 +28°C° 0 mm 3 m/s 757 mmHg 88%
    01:00 +28°C° 0 mm 2 m/s 757 mmHg 88%
    02:00 +28°C° 0 mm 2 m/s 757 mmHg 89%
    03:00 +28°C° 0 mm 1 m/s 756 mmHg 90%
    04:00 +28°C° 0 mm 2 m/s 756 mmHg 90%
    05:00 +27°C° 0 mm 2 m/s 757 mmHg 90%
    06:00 +27°C° 0 mm 2 m/s 757 mmHg 90%
    07:00 +29°C° 0 mm 2 m/s 757 mmHg 84%
    08:00 +30°C° 0 mm 2 m/s 757 mmHg 77%
    09:00 +31°C° 0 mm 2 m/s 758 mmHg 71%
    10:00 +32°C° 0 mm 2 m/s 758 mmHg 67%
    11:00 +33°C° 0 mm 3 m/s 758 mmHg 64%
    12:00 +34°C° 0 mm 3 m/s 757 mmHg 60%
    13:00 +34°C° 0.1 mm 3 m/s 757 mmHg 61%
    14:00 +34°C° 0.1 mm 3 m/s 756 mmHg 62%
    15:00 +33°C° 0.1 mm 4 m/s 755 mmHg 63%
    16:00 +31°C° 0 mm 3 m/s 755 mmHg 67%
    17:00 +31°C° 0 mm 3 m/s 756 mmHg 70%
    18:00 +30°C° 0 mm 3 m/s 756 mmHg 74%
    19:00 +29°C° 0 mm 3 m/s 757 mmHg 76%
    20:00 +29°C° 0 mm 3 m/s 757 mmHg 79%
    21:00 +28°C° 0 mm 3 m/s 758 mmHg 82%
    22:00 +28°C° 0 mm 3 m/s 758 mmHg 83%
    23:00 +28°C° 0 mm 3 m/s 758 mmHg 84%

    Poimâine, 21 Ianuarie, Marţi

    Timp Temperatura Precipitaţii Vânt Presiune Umiditate
    00:00 +28°C° 0 mm 3 m/s 758 mmHg 84%
    01:00 +28°C° 0 mm 3 m/s 757 mmHg 85%
    02:00 +28°C° 0 mm 3 m/s 757 mmHg 86%
    03:00 +28°C° 0 mm 2 m/s 756 mmHg 86%
    04:00 +28°C° 0 mm 2 m/s 757 mmHg 86%
    05:00 +27°C° 0 mm 2 m/s 757 mmHg 86%
    06:00 +27°C° 0 mm 2 m/s 757 mmHg 86%
    07:00 +29°C° 0 mm 2 m/s 758 mmHg 80%
    08:00 +30°C° 0 mm 3 m/s 758 mmHg 74%
    09:00 +31°C° 0 mm 3 m/s 759 mmHg 68%
    10:00 +33°C° 0 mm 3 m/s 758 mmHg 66%
    11:00 +33°C° 0 mm 3 m/s 758 mmHg 64%
    12:00 +33°C° 0 mm 3 m/s 758 mmHg 63%
    13:00 +33°C° 0 mm 3 m/s 757 mmHg 62%
    14:00 +33°C° 0 mm 3 m/s 757 mmHg 62%
    15:00 +33°C° 0 mm 3 m/s 756 mmHg 62%
    16:00 +31°C° 0.1 mm 3 m/s 756 mmHg 64%
    17:00 +31°C° 0.1 mm 3 m/s 756 mmHg 67%
    18:00 +30°C° 0.1 mm 3 m/s 756 mmHg 70%
    19:00 +29°C° 0 mm 3 m/s 757 mmHg 73%
    20:00 +29°C° 0 mm 3 m/s 757 mmHg 76%
    21:00 +28°C° 0 mm 3 m/s 758 mmHg 78%
    22:00 +28°C° 0 mm 3 m/s 758 mmHg 80%
    23:00 +28°C° 0 mm 2 m/s 758 mmHg 81%

    22 Ianuarie, Miercuri

    Timp Temperatura Precipitaţii Vânt Presiune Umiditate
    00:00 +28°C° 0 mm 2 m/s 758 mmHg 82%
    01:00 +28°C° 0 mm 2 m/s 757 mmHg 83%
    02:00 +28°C° 0 mm 2 m/s 757 mmHg 84%
    03:00 +27°C° 0 mm 2 m/s 757 mmHg 84%
    04:00 +27°C° 0 mm 2 m/s 757 mmHg 85%
    05:00 +27°C° 0 mm 3 m/s 757 mmHg 85%
    06:00 +27°C° 0 mm 3 m/s 757 mmHg 85%
    07:00 +29°C° 0 mm 3 m/s 758 mmHg 80%
    08:00 +30°C° 0 mm 3 m/s 758 mmHg 75%
    09:00 +31°C° 0 mm 3 m/s 759 mmHg 71%
    10:00 +33°C° 0 mm 3 m/s 758 mmHg 67%
    11:00 +33°C° 0 mm 3 m/s 758 mmHg 63%
    12:00 +34°C° 0 mm 3 m/s 758 mmHg 59%
    13:00 +34°C° 0.1 mm 3 m/s 757 mmHg 60%
    14:00 +34°C° 0.1 mm 3 m/s 757 mmHg 62%
    15:00 +33°C° 0.1 mm 3 m/s 756 mmHg 63%
    16:00 +31°C° 0.1 mm 3 m/s 756 mmHg 67%
    17:00 +32°C° 0.1 mm 4 m/s 756 mmHg 70%
    18:00 +30°C° 0.1 mm 4 m/s 756 mmHg 74%
    19:00 +29°C° 0 mm 4 m/s 756 mmHg 77%
    20:00 +29°C° 0 mm 4 m/s 757 mmHg 79%
    21:00 +29°C° 0 mm 4 m/s 757 mmHg 82%
    22:00 +28°C° 0 mm 4 m/s 757 mmHg 83%
    23:00 +28°C° 0 mm 3 m/s 757 mmHg 84%

    23 Ianuarie, Joi

    Timp Temperatura Precipitaţii Vânt Presiune Umiditate
    00:00 +28°C° 0 mm 3 m/s 757 mmHg 86%
    01:00 +28°C° 0 mm 3 m/s 757 mmHg 86%
    02:00 +28°C° 0 mm 3 m/s 757 mmHg 86%
    03:00 +28°C° 0 mm 3 m/s 756 mmHg 87%
    04:00 +28°C° 0 mm 3 m/s 756 mmHg 87%
    05:00 +28°C° 0 mm 3 m/s 757 mmHg 87%
    06:00 +28°C° 0 mm 3 m/s 757 mmHg 87%
    07:00 +28°C° 0.1 mm 3 m/s 757 mmHg 84%
    08:00 +29°C° 0.1 mm 3 m/s 758 mmHg 81%
    09:00 +30°C° 0.1 mm 3 m/s 758 mmHg 78%
    10:00 +31°C° 0.3 mm 3 m/s 758 mmHg 74%
    11:00 +31°C° 0.3 mm 3 m/s 758 mmHg 71%
    12:00 +33°C° 0.3 mm 3 m/s 757 mmHg 67%
    13:00 +33°C° 0.2 mm 3 m/s 757 mmHg 66%
    14:00 +33°C° 0.2 mm 3 m/s 756 mmHg 66%
    15:00 +33°C° 0.2 mm 3 m/s 755 mmHg 65%
    16:00 +33°C° 0.1 mm 3 m/s 756 mmHg 69%
    17:00 +31°C° 0.1 mm 3 m/s 756 mmHg 72%
    18:00 +30°C° 0.1 mm 2 m/s 756 mmHg 76%
    19:00 +29°C° 0 mm 2 m/s 756 mmHg 79%
    20:00 +29°C° 0 mm 2 m/s 757 mmHg 81%
    21:00 +28°C° 0 mm 3 m/s 757 mmHg 84%
    22:00 +28°C° 0 mm 3 m/s 757 mmHg 85%
    23:00 +28°C° 0 mm 4 m/s 757 mmHg 86%

    24 Ianuarie, Vineri

    Timp Temperatura Precipitaţii Vânt Presiune Umiditate
    00:00 +28°C° 0 mm 4 m/s 757 mmHg 87%
    01:00 +28°C° 0 mm 4 m/s 757 mmHg 88%
    02:00 +28°C° 0 mm 3 m/s 756 mmHg 89%
    03:00 +28°C° 0 mm 3 m/s 756 mmHg 90%
    04:00 +28°C° 0 mm 3 m/s 756 mmHg 90%
    05:00 +28°C° 0 mm 2 m/s 756 mmHg 90%
    06:00 +27°C° 0 mm 2 m/s 756 mmHg 90%
    07:00 +29°C° 0.1 mm 2 m/s 757 mmHg 84%
    08:00 +30°C° 0.1 mm 2 m/s 758 mmHg 78%
    09:00 +31°C° 0.1 mm 1 m/s 758 mmHg 72%
    10:00 +32°C° 0.2 mm 2 m/s 758 mmHg 68%
    11:00 +32°C° 0.2 mm 2 m/s 758 mmHg 65%
    12:00 +34°C° 0.2 mm 2 m/s 758 mmHg 62%
    13:00 +34°C° 0.1 mm 2 m/s 757 mmHg 62%
    14:00 +34°C° 0.1 mm 2 m/s 756 mmHg 62%
    15:00 +34°C° 0.1 mm 3 m/s 755 mmHg 62%
    16:00 +33°C° 0.1 mm 3 m/s 755 mmHg 67%
    17:00 +31°C° 0.1 mm 3 m/s 756 mmHg 71%
    18:00 +30°C° 0.1 mm 3 m/s 756 mmHg 76%
    19:00 +30°C° 0.1 mm 4 m/s 756 mmHg 79%
    20:00 +29°C° 0.1 mm 4 m/s 757 mmHg 81%
    21:00 +29°C° 0.1 mm 4 m/s 757 mmHg 84%
    22:00 +29°C° 0 mm 4 m/s 757 mmHg 85%
    23:00 +28°C° 0 mm 4 m/s 757 mmHg 86%
    Arată mai mult